Flag Weather past 2 weeks in Vitória, Espírito Santo, Brazil

Now
70 °F

Partly cloudy.


Feels Like: 70 °F
Forecast: 74 / 84 °F
Wind: 1 mph from Northeast

Location: Belo Horizonte Airport

Current Time: Nov 28, 2014 at 8:07:52 AM

Latest Report: Nov 28, 2014 at 7:00 AM


Visibility: 4 mi

Pressure: 30.04 "Hg

Humidity: 88%

Dew point: 66 °F

Location of VitóriaLocation

Historic Weather in Vitória — Graph

°F

Vitória temperature yesterday

Maximum temperature yesterday: 81 °F (at 4:00 PM)
Minimum temperature yesterday: 68 °F (at 12:00 AM)
Average temperature yesterday: 73 °F

Past Weeks' High & Low Weather Summary

 TemperatureHumidityPressure
High90 °F (Nov 21, 3:00 PM)94% (Nov 13, 11:00 PM)30.12 "Hg (Nov 13, 11:00 PM)
Low61 °F (Nov 16, 1:00 AM)23% (Nov 19, 5:00 PM)29.83 "Hg (Nov 13, 4:00 PM)
Average72 °F68%30.02 "Hg
* Reported Nov 13 7:00 AM — Nov 28 7:00 AM, Vitória, Weather by CustomWeather, © 2014

Note: Actual official high and low records may vary slightly from our data, if they occured in-between our weather recording intervals... More about our weather records

Advertising

Vitória weather history for previous 24 hours

 ConditionsComfort  
Time TempWeatherWind HumidityBarometerVisibility
7:00 AM
Nov 28
70 °FPartly cloudy.1 mph88%30.04 "Hg4 mi
6:00 AM68 °FFog.No wind94%30.01 "Hg2 mi
5:00 AM68 °FFog.2 mph94%30.01 "Hg2 mi
4:00 AM68 °FPartly cloudy.5 mph94%30.01 "HgN/A
3:00 AM70 °FPartly cloudy.6 mph83%30.01 "HgN/A
2:00 AM70 °FPartly cloudy.7 mph83%30.01 "HgN/A
1:00 AM70 °FPartly cloudy.7 mph88%30.04 "HgN/A
12:00 AM72 °FPartly cloudy.7 mph83%30.04 "HgN/A
11:00 PM
Nov 27
72 °FPartly cloudy.5 mph83%30.04 "HgN/A
10:00 PM72 °FPartly cloudy.6 mph83%30.01 "HgN/A
9:00 PM72 °FPassing clouds.8 mph83%29.98 "HgN/A
8:00 PM75 °FScattered clouds.5 mph74%29.98 "HgN/A
7:00 PM79 °FScattered clouds.10 mph65%29.95 "HgN/A
6:00 PM81 °FScattered clouds.7 mph62%29.92 "HgN/A
5:00 PM81 °FBroken clouds.12 mph58%29.92 "HgN/A
4:00 PM81 °FScattered clouds.7 mph66%29.92 "HgN/A
3:00 PM79 °FBroken clouds.10 mph65%29.95 "HgN/A
2:00 PM79 °FPartly sunny.14 mph61%29.98 "HgN/A
1:00 PM79 °FPartly sunny.10 mph65%30.01 "HgN/A
12:00 PM77 °FPartly sunny.8 mph69%30.04 "HgN/A
11:00 AM75 °FBroken clouds.7 mph74%30.04 "HgN/A
10:00 AM72 °FBroken clouds.5 mph83%30.04 "HgN/A
9:00 AM70 °FBroken clouds.5 mph88%30.04 "Hg4 mi
8:00 AM70 °FFog.3 mph88%30.01 "Hg1 mi
Weather by CustomWeather, © 2014

See weather overviewHow to use our weather pages